Content
SEND FEEDBACK

Daily
Averages
Monthly
Summary
United States of America

GRAND FORKS, NORTH DAKOTA


Home > North America > United States > North Dakota
Elevation: 913 feet     Latitude: 47 58N     Longitude: 097 24W

WEATHER
 
SELECT A DAY
Number of Records: 201,079;   Date Range: 1/1/95 - 10/22/14
 
SHARE

PRINT THIS DATA

[ ← Previous Day ]
WEATHER ALMANAC - JULY 30, 2014
[ Next Day → ]
[ °C ]   °F
Weather ElementAverageHighLow
Temperature67.9 °F81 °F (2:53 pm)54 °F (7:53 am)
Dewpoint56.3 °F62.1 °F (8:53 am)52 °F (12:53 am)
Humidity69.7 %97 % (5:53 am)43 % (3:53 pm)
Barometer30.08 in30.12 in (10:53 am)30.03 in (6:53 pm)
Wind Speed4.8 mph6.9 mph (12:53 pm)
Weather ElementAverage
Visibility10 mi
Wind DirectionW (270 °)

Weather ElementTotal
Precipitation---
Cooling Degree Days2.5 (Base 65)
Growing Degree Days17.5 (Base 50)
Averaged from 24 records on July 30, 2014
WEATHER CONDITIONS BREAKOUT
WIND DIRECTION BREAKOUT
WEATHER BY HOUR - JULY 30, 2014
[ °C ]   °F
Local TimeTemperatureDewpointHumidityBarometerVisibilityWind DirectionWind SpeedGust SpeedPrecipitationEventsConditions
12:53 AM57.0 °F54.0 °F89 %30.11 in10.0 miWest (270°)5.8 mphClear
1:53 AM55.9 °F54.0 °F93 %30.11 in10.0 miWest (270°)5.8 mphClear
2:53 AM55.9 °F54.0 °F93 %30.11 in10.0 miWest (280°)5.8 mphClear
3:53 AM54.0 °F53.1 °F97 %30.11 in10.0 miWNW (290°)4.6 mphClear
4:53 AM54.0 °F52.0 °F93 %30.12 in10.0 miWNW (290°)4.6 mphClear
5:53 AM54.0 °F52.0 °F93 %30.12 in10.0 miWest (270°)5.8 mphPartly Cloudy
6:53 AM55.0 °F53.1 °F93 %30.12 in10.0 miWest (280°)3.5 mphPartly Cloudy
7:53 AM60.1 °F55.9 °F86 %30.12 in10.0 miCalmPartly Cloudy
8:53 AM66.0 °F57.0 °F73 %30.12 in10.0 miNW (310°)3.5 mphPartly Cloudy
9:53 AM72.0 °F57.0 °F59 %30.12 in10.0 miWNW (290°)4.6 mphClear
10:53 AM75.0 °F59.0 °F57 %30.12 in10.0 miWNW (300°)4.6 mphClear
11:53 AM77.0 °F57.2 °F50 %30.11 in10.0 miNNW (340°)3.5 mphPartly Cloudy
12:53 PM79.0 °F57.0 °F47 %30.09 in10.0 miNorth (350°)6.9 mphPartly Cloudy
1:53 PM80.1 °F57.0 °F45 %30.08 in10.0 miNNW (340°)5.8 mphPartly Cloudy
2:53 PM80.1 °F55.9 °F43 %30.07 in10.0 miNW (310°)4.6 mphPartly Cloudy
3:53 PM81.0 °F57.9 °F45 %30.06 in10.0 miNorth (350°)6.9 mphPartly Cloudy
4:53 PM80.1 °F57.0 °F45 %30.06 in10.0 miNNW (340°)6.9 mphPartly Cloudy
5:53 PM81.0 °F57.9 °F45 %30.04 in10.0 miNorth (350°)5.8 mphPartly Cloudy
6:53 PM78.8 °F55.4 °F44 %30.04 in10.0 miNorth (360°)6.9 mphPartly Cloudy
7:53 PM75.9 °F59.0 °F56 %30.03 in10.0 miNorth (10°)5.8 mphPartly Cloudy
8:53 PM71.1 °F62.1 °F73 %30.03 in10.0 miNorth (360°)3.5 mphPartly Cloudy
9:53 PM64.0 °F59.0 °F84 %30.04 in10.0 miCalmClear
10:53 PM62.6 °F57.2 °F82 %30.04 in10.0 miWest (270°)3.5 mphClear
11:53 PM61.0 °F57.0 °F87 %30.04 in10.0 miWSW (250°)5.8 mphClear
Hourly data recorded from KGFK, located miles away from Grand Forks, North Dakota







STORIES FROM OUR PARTNERS